| time (UTC) | temp F | wind direction | speed knots | gust knots | rain 1hr in | rain 24hr in | rain mn in | humidity % | barometer mb |
| 20260503233602 | 58 | 209 | 2.6 | 9.6 | 0.00 | 0.00 | 0.00 | 43 | 1012.2 |
| 20260503233402 | 58 | 211 | 3.5 | 9.6 | 0.00 | 0.00 | 0.00 | 43 | 1012.3 |
| 20260503233302 | 58 | 213 | 3.5 | 9.6 | 0.00 | 0.00 | 0.00 | 43 | 1012.3 |
| 20260503233102 | 58 | 212 | 3.5 | 7.0 | 0.00 | 0.00 | 0.00 | 42 | 1012.4 |
| 20260503233023 | 58 | 214 | 2.6 | 7.0 | 0.00 | 0.00 | 0.00 | 42 | 1012.3 |
| 20260503232802 | 58 | 212 | 2.6 | 7.0 | 0.00 | 0.00 | 0.00 | 42 | 1012.3 |
| 20260503232323 | 58 | 205 | 2.6 | 7.8 | 0.00 | 0.00 | 0.00 | 42 | 1012.2 |
| 20260503231202 | 58 | 212 | 5.2 | 13.9 | 0.00 | 0.00 | 0.00 | 42 | 1012.4 |
| 20260503231002 | 58 | 212 | 5.2 | 13.9 | 0.00 | 0.00 | 0.00 | 41 | 1012.3 |
| 20260503230902 | 58 | 210 | 4.3 | 13.9 | 0.00 | 0.00 | 0.00 | 41 | 1012.4 |
| 20260503230623 | 59 | 214 | 3.5 | 13.9 | 0.00 | 0.00 | 0.00 | 41 | 1012.4 |
| 20260503230323 | 59 | 198 | 3.5 | 8.7 | 0.00 | 0.00 | 0.00 | 42 | 1012.4 |
| 20260503230202 | 58 | 197 | 3.5 | 8.7 | 0.00 | 0.00 | 0.00 | 42 | 1012.4 |
| 20260503225902 | 58 | 198 | 3.5 | 8.7 | 0.00 | 0.00 | 0.00 | 42 | 1012.5 |
| 20260503225602 | 59 | 200 | 3.5 | 8.7 | 0.00 | 0.00 | 0.00 | 42 | 1012.3 |
| 20260503225402 | 58 | 213 | 3.5 | 8.7 | 0.00 | 0.00 | 0.00 | 41 | 1012.7 |
| 20260503225123 | 58 | 218 | 3.5 | 7.8 | 0.00 | 0.00 | 0.00 | 42 | 1012.4 |
| 20260503225002 | 58 | 215 | 3.5 | 7.8 | 0.00 | 0.00 | 0.00 | 42 | 1012.5 |
| 20260503224902 | 58 | 213 | 3.5 | 7.8 | 0.00 | 0.00 | 0.00 | 42 | 1012.4 |
| 20260503224802 | 58 | 211 | 3.5 | 7.8 | 0.00 | 0.00 | 0.00 | 41 | 1012.4 |
| 20260503224302 | 59 | 206 | 3.5 | 11.3 | 0.00 | 0.00 | 0.00 | 42 | 1012.4 |
| 20260503224202 | 59 | 214 | 3.5 | 11.3 | 0.00 | 0.00 | 0.00 | 42 | 1012.4 |
| 20260503223902 | 59 | 234 | 4.3 | 13.0 | 0.00 | 0.00 | 0.00 | 42 | 1012.5 |
| 20260503223702 | 59 | 228 | 4.3 | 13.0 | 0.00 | 0.00 | 0.00 | 42 | 1012.6 |
| 20260503223602 | 59 | 231 | 4.3 | 13.0 | 0.00 | 0.00 | 0.00 | 42 | 1012.7 |
| 20260503223102 | 60 | 217 | 3.5 | 13.0 | 0.00 | 0.00 | 0.00 | 41 | 1012.6 |
| 20260503223002 | 60 | 213 | 3.5 | 12.2 | 0.00 | 0.00 | 0.00 | 40 | 1012.7 |
| 20260503222602 | 60 | 205 | 4.3 | 11.3 | 0.00 | 0.00 | 0.00 | 41 | 1012.7 |
| 20260503222502 | 60 | 207 | 5.2 | 11.3 | 0.00 | 0.00 | 0.00 | 40 | 1012.5 |
| 20260503222402 | 60 | 212 | 5.2 | 11.3 | 0.00 | 0.00 | 0.00 | 39 | 1012.5 |
| 20260503222102 | 60 | 226 | 6.1 | 12.2 | 0.00 | 0.00 | 0.00 | 40 | 1012.5 |
| 20260503221802 | 59 | 225 | 5.2 | 12.2 | 0.00 | 0.00 | 0.00 | 40 | 1012.8 |
| 20260503221702 | 59 | 227 | 5.2 | 12.2 | 0.00 | 0.00 | 0.00 | 39 | 1012.8 |
| 20260503221623 | 59 | 231 | 6.1 | 19.1 | 0.00 | 0.00 | 0.00 | 41 | 1012.7 |
| 20260503221402 | 59 | 229 | 7.0 | 19.1 | 0.00 | 0.00 | 0.00 | 40 | 1012.8 |
| 20260503221302 | 60 | 227 | 7.0 | 19.1 | 0.00 | 0.00 | 0.00 | 40 | 1012.7 |
| 20260503221102 | 60 | 221 | 6.1 | 19.1 | 0.00 | 0.00 | 0.00 | 39 | 1012.7 |
| 20260503221002 | 59 | 223 | 6.1 | 19.1 | 0.00 | 0.00 | 0.00 | 40 | 1012.7 |
| 20260503220903 | 59 | 231 | 6.1 | 19.1 | 0.00 | 0.00 | 0.00 | 40 | 1012.9 |
| 20260503220702 | 59 | 232 | 7.0 | 19.1 | 0.00 | 0.00 | 0.00 | 40 | 1012.9 |
| 20260503220502 | 59 | 235 | 6.1 | 15.6 | 0.00 | 0.00 | 0.00 | 40 | 1012.8 |
| 20260503220402 | 59 | 237 | 6.1 | 15.6 | 0.00 | 0.00 | 0.00 | 41 | 1012.6 |
| 20260503220323 | 59 | 233 | 6.1 | 15.6 | 0.00 | 0.00 | 0.00 | 40 | 1012.6 |
| 20260503220202 | 59 | 230 | 6.1 | 13.9 | 0.00 | 0.00 | 0.00 | 41 | 1012.7 |
| 20260503215902 | 59 | 223 | 5.2 | 13.9 | 0.00 | 0.00 | 0.00 | 40 | 1012.8 |
| 20260503215602 | 59 | 215 | 4.3 | 12.2 | 0.00 | 0.00 | 0.00 | 40 | 1012.7 |
| 20260503215502 | 59 | 216 | 4.3 | 12.2 | 0.00 | 0.00 | 0.00 | 41 | 1012.8 |
| 20260503215123 | 59 | 216 | 3.5 | 12.2 | 0.00 | 0.00 | 0.00 | 41 | 1012.8 |
| 20260503215023 | 59 | 221 | 3.5 | 12.2 | 0.00 | 0.00 | 0.00 | 41 | 1012.5 |
| 20260503214902 | 59 | 211 | 3.5 | 12.2 | 0.00 | 0.00 | 0.00 | 41 | 1012.6 |
| 20260503214823 | 59 | 211 | 3.5 | 12.2 | 0.00 | 0.00 | 0.00 | 42 | 1012.7 |
| 20260503214702 | 59 | 222 | 3.5 | 12.2 | 0.00 | 0.00 | 0.00 | 41 | 1012.9 |
| 20260503214602 | 59 | 215 | 3.5 | 12.2 | 0.00 | 0.00 | 0.00 | 42 | 1012.7 |
| 20260503214502 | 59 | 210 | 3.5 | 12.2 | 0.00 | 0.00 | 0.00 | 41 | 1012.5 |
| 20260503214402 | 59 | 217 | 3.5 | 12.2 | 0.00 | 0.00 | 0.00 | 41 | 1012.7 |
| 20260503214023 | 59 | 227 | 4.3 | 13.0 | 0.00 | 0.00 | 0.00 | 41 | 1012.6 |
| 20260503213802 | 59 | 217 | 6.1 | 15.6 | 0.00 | 0.00 | 0.00 | 41 | 1012.6 |
| 20260503213723 | 59 | 222 | 6.1 | 15.6 | 0.00 | 0.00 | 0.00 | 40 | 1012.7 |
| 20260503213302 | 59 | 217 | 6.1 | 15.6 | 0.00 | 0.00 | 0.00 | 40 | 1012.6 |
| 20260503213123 | 59 | 213 | 6.1 | 15.6 | 0.00 | 0.00 | 0.00 | 41 | 1012.6 |
| 20260503213002 | 59 | 218 | 6.1 | 14.8 | 0.00 | 0.00 | 0.00 | 40 | 1012.8 |
| 20260503212702 | 60 | 221 | 5.2 | 13.9 | 0.00 | 0.00 | 0.00 | 40 | 1012.8 |
| 20260503212602 | 60 | 222 | 5.2 | 13.9 | 0.00 | 0.00 | 0.00 | 40 | 1012.6 |
| 20260503212402 | 60 | 227 | 5.2 | 12.2 | 0.00 | 0.00 | 0.00 | 40 | 1012.6 |
| 20260503212102 | 59 | 229 | 5.2 | 12.2 | 0.00 | 0.00 | 0.00 | 40 | 1012.5 |
| 20260503212002 | 59 | 230 | 6.1 | 12.2 | 0.00 | 0.00 | 0.00 | 39 | 1012.6 |
| 20260503211902 | 60 | 235 | 5.2 | 12.2 | 0.00 | 0.00 | 0.00 | 39 | 1012.7 |
| 20260503211802 | 59 | 232 | 5.2 | 12.2 | 0.00 | 0.00 | 0.00 | 40 | 1012.6 |
| 20260503211402 | 59 | 233 | 5.2 | 12.2 | 0.00 | 0.00 | 0.00 | 39 | 1012.7 |
| 20260503211202 | 59 | 237 | 5.2 | 12.2 | 0.00 | 0.00 | 0.00 | 41 | 1012.6 |
| 20260503211102 | 60 | 240 | 5.2 | 12.2 | 0.00 | 0.00 | 0.00 | 39 | 1012.6 |
| 20260503210902 | 60 | 234 | 4.3 | 11.3 | 0.00 | 0.00 | 0.00 | 39 | 1012.6 |
| 20260503210702 | 60 | 238 | 4.3 | 11.3 | 0.00 | 0.00 | 0.00 | 40 | 1012.7 |
| 20260503210323 | 61 | 226 | 3.5 | 8.7 | 0.00 | 0.00 | 0.00 | 39 | 1012.5 |
| 20260503210202 | 60 | 224 | 3.5 | 8.7 | 0.00 | 0.00 | 0.00 | 38 | 1012.3 |
| 20260503210002 | 60 | 213 | 3.5 | 8.7 | 0.00 | 0.00 | 0.00 | 39 | 1012.7 |
| 20260503205902 | 60 | 221 | 3.5 | 8.7 | 0.00 | 0.00 | 0.00 | 39 | 1012.5 |
| 20260503205802 | 60 | 221 | 3.5 | 8.7 | 0.00 | 0.00 | 0.00 | 39 | 1012.5 |
| 20260503205602 | 60 | 210 | 3.5 | 8.7 | 0.00 | 0.00 | 0.00 | 38 | 1012.7 |
| 20260503205502 | 60 | 199 | 3.5 | 8.7 | 0.00 | 0.00 | 0.00 | 40 | 1012.5 |
| 20260503205423 | 60 | 210 | 3.5 | 8.7 | 0.00 | 0.00 | 0.00 | 39 | 1012.5 |
| 20260503205304 | 61 | 207 | 4.3 | 9.6 | 0.00 | 0.00 | 0.00 | 38 | 1012.5 |
| 20260503205202 | 61 | 188 | 4.3 | 11.3 | 0.00 | 0.00 | 0.00 | 39 | 1012.7 |
| 20260503205102 | 61 | 193 | 3.5 | 11.3 | 0.00 | 0.00 | 0.00 | 38 | 1012.7 |
| 20260503204902 | 61 | 199 | 4.3 | 11.3 | 0.00 | 0.00 | 0.00 | 39 | 1012.7 |
| 20260503204102 | 61 | 227 | 5.2 | 13.0 | 0.00 | 0.00 | 0.00 | 39 | 1012.6 |
| 20260503203923 | 61 | 223 | 5.2 | 13.0 | 0.00 | 0.00 | 0.00 | 39 | 1012.4 |
| 20260503203623 | 62 | 228 | 5.2 | 13.0 | 0.00 | 0.00 | 0.00 | 38 | 1012.7 |
| 20260503203402 | 62 | 232 | 5.2 | 13.0 | 0.00 | 0.00 | 0.00 | 38 | 1012.5 |
| 20260503203102 | 60 | 216 | 5.2 | 13.0 | 0.00 | 0.00 | 0.00 | 39 | 1012.7 |
| 20260503202902 | 59 | 220 | 6.1 | 13.0 | 0.00 | 0.00 | 0.00 | 39 | 1012.8 |
| 20260503202802 | 59 | 220 | 6.1 | 12.2 | 0.00 | 0.00 | 0.00 | 39 | 1012.8 |
| 20260503202702 | 59 | 217 | 5.2 | 12.2 | 0.00 | 0.00 | 0.00 | 39 | 1012.7 |
| 20260503202423 | 59 | 207 | 5.2 | 13.9 | 0.00 | 0.00 | 0.00 | 39 | 1012.7 |
| 20260503202123 | 59 | 216 | 5.2 | 13.9 | 0.00 | 0.00 | 0.00 | 40 | 1012.8 |
| 20260503201803 | 59 | 205 | 5.2 | 13.9 | 0.00 | 0.00 | 0.00 | 40 | 1012.9 |
| 20260503201602 | 60 | 203 | 4.3 | 13.9 | 0.00 | 0.00 | 0.00 | 39 | 1012.9 |
| 20260503200902 | 60 | 240 | 6.1 | 14.8 | 0.00 | 0.00 | 0.00 | 40 | 1013.1 |
| 20260503200824 | 60 | 243 | 6.1 | 14.8 | 0.00 | 0.00 | 0.00 | 40 | 1013.2 |
| 20260503200702 | 60 | 242 | 6.1 | 14.8 | 0.00 | 0.00 | 0.00 | 40 | 1013.1 |
| 20260503200602 | 60 | 238 | 6.1 | 14.8 | 0.00 | 0.00 | 0.00 | 40 | 1013.2 |
| 20260503200502 | 60 | 241 | 6.1 | 14.8 | 0.00 | 0.00 | 0.00 | 39 | 1013.1 |
| 20260503195802 | 59 | 196 | 6.1 | 14.8 | 0.00 | 0.00 | 0.00 | 40 | 1013.2 |
| 20260503195602 | 59 | 198 | 5.2 | 14.8 | 0.00 | 0.00 | 0.00 | 39 | 1013.2 |
| 20260503195304 | 59 | 197 | 5.2 | 13.0 | 0.00 | 0.00 | 0.00 | 40 | 1013.3 |
| 20260503195102 | 60 | 211 | 5.2 | 13.0 | 0.00 | 0.00 | 0.00 | 39 | 1013.2 |
| 20260503194902 | 60 | 226 | 5.2 | 13.0 | 0.00 | 0.00 | 0.00 | 39 | 1013.5 |
| 20260503194803 | 60 | 227 | 5.2 | 12.2 | 0.00 | 0.00 | 0.00 | 39 | 1013.3 |
| 20260503194402 | 60 | 226 | 4.3 | 12.2 | 0.00 | 0.00 | 0.00 | 40 | 1013.5 |
| 20260503194302 | 60 | 225 | 4.3 | 12.2 | 0.00 | 0.00 | 0.00 | 39 | 1013.5 |
| 20260503193903 | 60 | 211 | 4.3 | 12.2 | 0.00 | 0.00 | 0.00 | 39 | 1013.6 |
| 20260503193602 | 59 | 203 | 3.5 | 9.6 | 0.00 | 0.00 | 0.00 | 42 | 1013.6 |
| 20260503193523 | 59 | 203 | 3.5 | 9.6 | 0.00 | 0.00 | 0.00 | 41 | 1013.4 |
| 20260503193123 | 59 | 187 | 3.5 | 9.6 | 0.00 | 0.00 | 0.00 | 40 | 1013.6 |
| 20260503192702 | 59 | 225 | 4.3 | 14.8 | 0.00 | 0.00 | 0.00 | 39 | 1013.6 |
| 20260503192323 | 59 | 252 | 5.2 | 14.8 | 0.00 | 0.00 | 0.00 | 40 | 1013.7 |
| 20260503192202 | 59 | 251 | 6.1 | 14.8 | 0.00 | 0.00 | 0.00 | 39 | 1013.6 |
| 20260503192102 | 59 | 246 | 6.1 | 14.8 | 0.00 | 0.00 | 0.00 | 38 | 1013.9 |
| 20260503191902 | 58 | 239 | 6.1 | 14.8 | 0.00 | 0.00 | 0.00 | 40 | 1013.9 |
| 20260503191602 | 59 | 213 | 5.2 | 13.0 | 0.00 | 0.00 | 0.00 | 40 | 1013.9 |
| 20260503191502 | 59 | 207 | 4.3 | 12.2 | 0.00 | 0.00 | 0.00 | 38 | 1014.0 |
| 20260503191403 | 60 | 202 | 4.3 | 12.2 | 0.00 | 0.00 | 0.00 | 38 | 1014.1 |
| 20260503191323 | 60 | 198 | 4.3 | 12.2 | 0.00 | 0.00 | 0.00 | 38 | 1013.9 |
| 20260503191102 | 59 | 213 | 4.3 | 13.9 | 0.00 | 0.00 | 0.00 | 38 | 1013.9 |
| 20260503190902 | 59 | 222 | 4.3 | 13.9 | 0.00 | 0.00 | 0.00 | 39 | 1013.9 |
| 20260503190823 | 59 | 223 | 4.3 | 13.9 | 0.00 | 0.00 | 0.00 | 39 | 1013.9 |
| 20260503190703 | 60 | 234 | 4.3 | 13.9 | 0.00 | 0.00 | 0.00 | 37 | 1013.7 |
| 20260503190602 | 60 | 229 | 5.2 | 13.9 | 0.00 | 0.00 | 0.00 | 36 | 1013.8 |
| 20260503190502 | 60 | 226 | 5.2 | 13.9 | 0.00 | 0.00 | 0.00 | 38 | 1014.1 |
| 20260503190423 | 60 | 228 | 5.2 | 13.9 | 0.00 | 0.00 | 0.00 | 38 | 1013.8 |
| 20260503190302 | 60 | 231 | 5.2 | 13.9 | 0.00 | 0.00 | 0.00 | 37 | 1014.1 |
| 20260503185802 | 61 | 215 | 4.3 | 11.3 | 0.00 | 0.00 | 0.00 | 37 | 1014.0 |
| 20260503185603 | 60 | 215 | 4.3 | 11.3 | 0.00 | 0.00 | 0.00 | 38 | 1014.0 |
| 20260503185403 | 60 | 235 | 5.2 | 11.3 | 0.00 | 0.00 | 0.00 | 37 | 1014.1 |
| 20260503185102 | 60 | 253 | 6.1 | 14.8 | 0.00 | 0.00 | 0.00 | 39 | 1014.0 |
| 20260503185002 | 59 | 256 | 6.1 | 14.8 | 0.00 | 0.00 | 0.00 | 39 | 1013.9 |
| 20260503184802 | 59 | 263 | 6.1 | 14.8 | 0.00 | 0.00 | 0.00 | 40 | 1014.0 |
| 20260503184602 | 59 | 268 | 6.1 | 14.8 | 0.00 | 0.00 | 0.00 | 40 | 1014.0 |
| 20260503184302 | 59 | 265 | 5.2 | 13.9 | 0.00 | 0.00 | 0.00 | 38 | 1013.9 |
| 20260503184202 | 59 | 260 | 4.3 | 13.9 | 0.00 | 0.00 | 0.00 | 37 | 1014.2 |
| 20260503184102 | 60 | 254 | 4.3 | 11.3 | 0.00 | 0.00 | 0.00 | 38 | 1014.3 |
| 20260503184002 | 61 | 252 | 4.3 | 12.2 | 0.00 | 0.00 | 0.00 | 38 | 1014.2 |
| 20260503183603 | 60 | 242 | 5.2 | 20.0 | 0.00 | 0.00 | 0.00 | 39 | 1014.3 |
| 20260503183523 | 60 | 234 | 5.2 | 20.0 | 0.00 | 0.00 | 0.00 | 40 | 1014.3 |
| 20260503183403 | 58 | 231 | 6.1 | 20.0 | 0.00 | 0.00 | 0.00 | 40 | 1014.3 |
| 20260503183202 | 58 | 226 | 7.0 | 20.0 | 0.00 | 0.00 | 0.00 | 39 | 1014.4 |
| 20260503183102 | 59 | 223 | 7.0 | 20.0 | 0.00 | 0.00 | 0.00 | 39 | 1014.5 |
| 20260503182802 | 60 | 190 | 6.1 | 14.8 | 0.00 | 0.00 | 0.00 | 39 | 1014.2 |
| 20260503182602 | 59 | 197 | 5.2 | 14.8 | 0.00 | 0.00 | 0.00 | 40 | 1014.4 |
| 20260503182523 | 59 | 201 | 5.2 | 14.8 | 0.00 | 0.00 | 0.00 | 41 | 1014.3 |
| 20260503182402 | 59 | 201 | 5.2 | 14.8 | 0.00 | 0.00 | 0.00 | 41 | 1014.4 |
| 20260503182202 | 60 | 210 | 5.2 | 15.6 | 0.00 | 0.00 | 0.00 | 39 | 1014.5 |
| 20260503182102 | 60 | 214 | 5.2 | 15.6 | 0.00 | 0.00 | 0.00 | 39 | 1014.2 |
| 20260503181902 | 59 | 233 | 5.2 | 15.6 | 0.00 | 0.00 | 0.00 | 40 | 1014.4 |
| 20260503181603 | 59 | 231 | 6.1 | 15.6 | 0.00 | 0.00 | 0.00 | 39 | 1014.4 |
| 20260503181402 | 59 | 230 | 6.1 | 15.6 | 0.00 | 0.00 | 0.00 | 40 | 1014.5 |
| 20260503181202 | 59 | 234 | 6.1 | 13.0 | 0.00 | 0.00 | 0.00 | 43 | 1014.4 |
| 20260503180323 | 58 | 248 | 6.1 | 14.8 | 0.00 | 0.00 | 0.00 | 42 | 1014.6 |
| 20260503180202 | 58 | 241 | 6.1 | 14.8 | 0.00 | 0.00 | 0.00 | 41 | 1014.5 |
| 20260503180003 | 58 | 242 | 6.1 | 14.8 | 0.00 | 0.00 | 0.00 | 41 | 1014.8 |
| 20260503175502 | 60 | 230 | 5.2 | 12.2 | 0.00 | 0.00 | 0.00 | 42 | 1014.7 |
| 20260503175202 | 59 | 221 | 5.2 | 12.2 | 0.00 | 0.00 | 0.00 | 42 | 1014.7 |
| 20260503175102 | 59 | 222 | 6.1 | 13.0 | 0.00 | 0.00 | 0.00 | 41 | 1014.8 |
| 20260503174602 | 60 | 228 | 5.2 | 14.8 | 0.00 | 0.00 | 0.00 | 40 | 1014.6 |
| 20260503174402 | 59 | 229 | 6.1 | 14.8 | 0.00 | 0.00 | 0.00 | 42 | 1014.7 |
| 20260503174202 | 59 | 237 | 5.2 | 14.8 | 0.00 | 0.00 | 0.00 | 42 | 1014.9 |
| 20260503174102 | 59 | 237 | 5.2 | 14.8 | 0.00 | 0.00 | 0.00 | 41 | 1014.8 |
| 20260503173902 | 59 | 233 | 4.3 | 13.9 | 0.00 | 0.00 | 0.00 | 42 | 1015.0 |
| 20260503173202 | 60 | 248 | 4.3 | 13.0 | 0.00 | 0.00 | 0.00 | 42 | 1014.9 |
| 20260503172902 | 59 | 249 | 4.3 | 13.0 | 0.00 | 0.00 | 0.00 | 45 | 1015.0 |
| 20260503172802 | 58 | 242 | 4.3 | 13.0 | 0.00 | 0.00 | 0.00 | 44 | 1014.9 |
| 20260503172602 | 58 | 237 | 4.3 | 13.0 | 0.00 | 0.00 | 0.00 | 43 | 1015.1 |
| 20260503172402 | 58 | 231 | 4.3 | 11.3 | 0.00 | 0.00 | 0.00 | 42 | 1015.0 |
| 20260503172202 | 60 | 228 | 3.5 | 9.6 | 0.00 | 0.00 | 0.00 | 42 | 1014.9 |
| 20260503172102 | 60 | 224 | 3.5 | 12.2 | 0.00 | 0.00 | 0.00 | 43 | 1014.9 |
| 20260503172002 | 60 | 221 | 4.3 | 13.0 | 0.00 | 0.00 | 0.00 | 42 | 1014.9 |
| 20260503171802 | 59 | 225 | 5.2 | 13.0 | 0.00 | 0.00 | 0.00 | 42 | 1015.1 |
| 20260503171702 | 58 | 218 | 5.2 | 13.0 | 0.00 | 0.00 | 0.00 | 43 | 1015.1 |
| 20260503171602 | 58 | 219 | 5.2 | 13.0 | 0.00 | 0.00 | 0.00 | 43 | 1015.2 |
| 20260503171503 | 58 | 214 | 5.2 | 13.0 | 0.00 | 0.00 | 0.00 | 42 | 1014.9 |
| 20260503171302 | 58 | 214 | 5.2 | 13.0 | 0.00 | 0.00 | 0.00 | 41 | 1014.9 |
| 20260503171002 | 58 | 221 | 5.2 | 12.2 | 0.00 | 0.00 | 0.00 | 42 | 1015.1 |
| 20260503170603 | 58 | 243 | 5.2 | 13.0 | 0.00 | 0.00 | 0.00 | 43 | 1015.3 |
| 20260503170502 | 58 | 243 | 5.2 | 13.0 | 0.00 | 0.00 | 0.00 | 42 | 1015.2 |
| 20260503170402 | 58 | 246 | 5.2 | 13.0 | 0.00 | 0.00 | 0.00 | 42 | 1015.2 |
| 20260503170202 | 58 | 246 | 5.2 | 13.0 | 0.00 | 0.00 | 0.00 | 42 | 1015.2 |
| 20260503150902 | 54 | 211 | 3.5 | 11.3 | 0.00 | 0.00 | 0.00 | 42 | 1016.5 |
| 20260503140302 | 50 | 168 | 2.6 | 5.2 | 0.00 | 0.00 | 0.00 | 46 | 1016.6 |
| 20260503140202 | 50 | 169 | 2.6 | 5.2 | 0.00 | 0.00 | 0.00 | 47 | 1016.6 |
| 20260503131402 | 47 | 198 | 2.6 | 7.0 | 0.00 | 0.00 | 0.00 | 51 | 1016.8 |
| 20260503131023 | 47 | 205 | 2.6 | 8.7 | 0.00 | 0.00 | 0.00 | 49 | 1017.0 |
| 20260503130902 | 47 | 200 | 2.6 | 8.7 | 0.00 | 0.00 | 0.00 | 50 | 1016.6 |
| 20260503130624 | 47 | 201 | 2.6 | 8.7 | 0.00 | 0.00 | 0.00 | 50 | 1016.7 |
| 20260503110802 | 31 | 117 | 0.0 | 0.9 | 0.00 | 0.05 | 0.00 | 92 | 1016.5 |
| 20260503110602 | 31 | 116 | 0.0 | 0.9 | 0.00 | 0.06 | 0.00 | 93 | 1016.5 |
| 20260503110123 | 31 | 117 | 0.0 | 0.9 | 0.00 | 0.06 | 0.00 | 93 | 1016.3 |
| 20260503090503 | 34 | 130 | 0.9 | 1.7 | 0.00 | 0.13 | 0.00 | 84 | 1016.3 |
| 20260503090402 | 34 | 131 | 0.9 | 1.7 | 0.00 | 0.13 | 0.00 | 85 | 1016.2 |
| 20260503090302 | 34 | 131 | 0.9 | 1.7 | 0.00 | 0.13 | 0.00 | 85 | 1016.3 |
| 20260503081602 | 34 | 0 | 0.0 | 0.0 | 0.00 | 0.13 | 0.00 | 87 | 1016.3 |
| 20260503081503 | 34 | 0 | 0.0 | 0.0 | 0.00 | 0.13 | 0.00 | 87 | 1016.3 |
| 20260503081324 | 34 | 0 | 0.0 | 0.0 | 0.00 | 0.13 | 0.00 | 87 | 1016.3 |
| 20260503081203 | 34 | 0 | 0.0 | 0.0 | 0.00 | 0.13 | 0.00 | 87 | 1016.4 |
| 20260503081102 | 34 | 0 | 0.0 | 0.0 | 0.00 | 0.13 | 0.00 | 86 | 1016.1 |
| 20260503081003 | 34 | 0 | 0.0 | 0.0 | 0.00 | 0.13 | 0.00 | 87 | 1016.4 |
| 20260503080702 | 34 | 128 | 0.0 | 1.7 | 0.00 | 0.13 | 0.00 | 87 | 1016.5 |
| 20260503080302 | 34 | 128 | 0.0 | 1.7 | 0.00 | 0.13 | 0.00 | 87 | 1016.2 |
| 20260503072902 | 33 | 0 | 0.0 | 0.0 | 0.00 | 0.13 | 0.00 | 89 | 1016.1 |
| 20260503072803 | 33 | 0 | 0.0 | 0.0 | 0.00 | 0.13 | 0.00 | 89 | 1016.4 |
| 20260503072624 | 33 | 0 | 0.0 | 0.0 | 0.00 | 0.13 | 0.00 | 88 | 1016.2 |
| 20260503072403 | 33 | 0 | 0.0 | 0.0 | 0.00 | 0.13 | 0.00 | 89 | 1016.2 |
| 20260503072202 | 34 | 116 | 0.0 | 0.9 | 0.00 | 0.13 | 0.00 | 88 | 1016.2 |
| 20260503072102 | 34 | 116 | 0.0 | 0.9 | 0.00 | 0.13 | 0.00 | 88 | 1016.3 |
| 20260503071924 | 34 | 114 | 0.0 | 0.9 | 0.00 | 0.13 | 0.00 | 88 | 1016.3 |
| 20260503071803 | 34 | 114 | 0.0 | 0.9 | 0.00 | 0.13 | 0.00 | 88 | 1016.4 |
| 20260503071602 | 34 | 114 | 0.0 | 0.9 | 0.00 | 0.13 | 0.00 | 88 | 1016.2 |
| 20260503071402 | 34 | 114 | 0.0 | 0.9 | 0.00 | 0.13 | 0.00 | 88 | 1016.3 |
| 20260503071302 | 34 | 114 | 0.0 | 0.9 | 0.00 | 0.13 | 0.00 | 88 | 1016.3 |
| 20260503071102 | 34 | 114 | 0.0 | 0.9 | 0.00 | 0.13 | 0.00 | 88 | 1016.4 |
| 20260503070902 | 34 | 115 | 0.0 | 0.9 | 0.00 | 0.13 | 0.00 | 89 | 1016.3 |
| 20260503070702 | 34 | 115 | 0.0 | 0.9 | 0.00 | 0.13 | 0.00 | 88 | 1016.3 |
| 20260503070602 | 34 | 115 | 0.0 | 0.9 | 0.00 | 0.13 | 0.00 | 89 | 1016.3 |
| 20260503070502 | 34 | 113 | 0.0 | 0.9 | 0.00 | 0.13 | 0.00 | 89 | 1016.3 |
| 20260503070424 | 34 | 113 | 0.0 | 0.9 | 0.00 | 0.13 | 0.00 | 89 | 1016.4 |
| 20260503060324 | 33 | 0 | 0.0 | 0.0 | 0.00 | 0.13 | 0.00 | 91 | 1016.6 |
| 20260503055102 | 33 | 0 | 0.0 | 0.0 | 0.00 | 0.13 | 0.00 | 89 | 1016.5 |
| 20260503055002 | 33 | 0 | 0.0 | 0.0 | 0.00 | 0.13 | 0.00 | 89 | 1016.6 |
| 20260503054903 | 33 | 0 | 0.0 | 0.0 | 0.00 | 0.13 | 0.00 | 89 | 1016.7 |
| 20260503054803 | 34 | 0 | 0.0 | 0.0 | 0.00 | 0.13 | 0.00 | 89 | 1016.6 |
| 20260503054602 | 34 | 0 | 0.0 | 0.0 | 0.00 | 0.13 | 0.00 | 89 | 1016.5 |
| 20260503054103 | 34 | 0 | 0.0 | 0.0 | 0.00 | 0.14 | 0.00 | 88 | 1016.7 |
| 20260503054003 | 34 | 0 | 0.0 | 0.0 | 0.00 | 0.14 | 0.00 | 88 | 1016.6 |
| 20260503053902 | 34 | 0 | 0.0 | 0.0 | 0.00 | 0.14 | 0.00 | 88 | 1016.7 |
| 20260503053703 | 34 | 0 | 0.0 | 0.0 | 0.00 | 0.14 | 0.00 | 88 | 1016.7 |
| 20260503053603 | 34 | 0 | 0.0 | 0.0 | 0.00 | 0.14 | 0.00 | 88 | 1016.6 |
| 20260503053303 | 34 | 0 | 0.0 | 0.0 | 0.00 | 0.14 | 0.00 | 87 | 1016.6 |
| 20260503053203 | 35 | 0 | 0.0 | 0.0 | 0.00 | 0.14 | 0.00 | 87 | 1016.7 |
| 20260503053002 | 35 | 0 | 0.0 | 0.0 | 0.00 | 0.14 | 0.00 | 86 | 1016.7 |
| 20260503052423 | 35 | 0 | 0.0 | 0.0 | 0.00 | 0.14 | 0.00 | 85 | 1016.5 |
| 20260503052305 | 35 | 0 | 0.0 | 0.0 | 0.00 | 0.14 | 0.00 | 85 | 1016.5 |
| 20260503052002 | 35 | 0 | 0.0 | 0.0 | 0.00 | 0.14 | 0.00 | 85 | 1016.8 |
| 20260503051923 | 35 | 0 | 0.0 | 0.0 | 0.00 | 0.14 | 0.00 | 85 | 1016.7 |
| 20260503051602 | 35 | 0 | 0.0 | 0.0 | 0.00 | 0.14 | 0.00 | 85 | 1016.7 |
| 20260503050903 | 35 | 0 | 0.0 | 0.0 | 0.00 | 0.14 | 0.00 | 86 | 1016.7 |
| 20260503050703 | 35 | 0 | 0.0 | 0.0 | 0.00 | 0.14 | 0.00 | 85 | 1016.7 |
| 20260503050303 | 35 | 0 | 0.0 | 0.0 | 0.00 | 0.14 | 0.00 | 85 | 1016.7 |
| 20260503050003 | 35 | 0 | 0.0 | 0.0 | 0.00 | 0.15 | 0.00 | 85 | 1016.6 |
| 20260503045902 | 35 | 0 | 0.0 | 0.0 | 0.00 | 0.15 | 0.00 | 85 | 1016.6 |
| 20260503045703 | 35 | 0 | 0.0 | 0.0 | 0.00 | 0.15 | 0.00 | 85 | 1016.6 |
| 20260503045502 | 35 | 0 | 0.0 | 0.0 | 0.00 | 0.15 | 0.00 | 84 | 1016.7 |
| 20260503045403 | 35 | 0 | 0.0 | 0.0 | 0.00 | 0.15 | 0.00 | 84 | 1016.8 |
| 20260503044803 | 35 | 0 | 0.0 | 0.0 | 0.00 | 0.15 | 0.00 | 83 | 1016.7 |
| 20260503044624 | 35 | 0 | 0.0 | 0.0 | 0.00 | 0.15 | 0.00 | 83 | 1016.9 |
| 20260503044524 | 35 | 0 | 0.0 | 0.0 | 0.00 | 0.15 | 0.00 | 83 | 1016.8 |
| 20260503043703 | 36 | 0 | 0.0 | 0.0 | 0.00 | 0.15 | 0.00 | 83 | 1016.7 |
| 20260503043624 | 36 | 0 | 0.0 | 0.0 | 0.00 | 0.15 | 0.00 | 83 | 1016.7 |
| 20260503043303 | 36 | 0 | 0.0 | 0.0 | 0.00 | 0.15 | 0.00 | 82 | 1016.8 |
| 20260503043103 | 36 | 0 | 0.0 | 0.0 | 0.00 | 0.15 | 0.00 | 82 | 1016.7 |
| 20260503042802 | 36 | 0 | 0.0 | 0.0 | 0.00 | 0.15 | 0.00 | 81 | 1016.9 |
| 20260503042602 | 36 | 0 | 0.0 | 0.0 | 0.00 | 0.15 | 0.00 | 81 | 1016.7 |
| 20260503042502 | 36 | 0 | 0.0 | 0.0 | 0.00 | 0.15 | 0.00 | 81 | 1016.8 |
| 20260503042304 | 36 | 0 | 0.0 | 0.0 | 0.00 | 0.16 | 0.00 | 81 | 1016.7 |
| 20260503042102 | 36 | 0 | 0.0 | 0.0 | 0.00 | 0.16 | 0.00 | 81 | 1016.8 |
| 20260503042002 | 36 | 0 | 0.0 | 0.0 | 0.00 | 0.16 | 0.00 | 81 | 1016.9 |
| 20260503041702 | 37 | 0 | 0.0 | 0.0 | 0.00 | 0.16 | 0.00 | 81 | 1017.0 |
| 20260503041103 | 37 | 0 | 0.0 | 0.0 | 0.00 | 0.16 | 0.00 | 80 | 1016.8 |
| 20260503040903 | 37 | 0 | 0.0 | 0.0 | 0.00 | 0.16 | 0.00 | 80 | 1016.9 |
| 20260503040602 | 38 | 0 | 0.0 | 0.0 | 0.00 | 0.16 | 0.00 | 79 | 1016.9 |
| 20260503040003 | 38 | 0 | 0.0 | 0.0 | 0.00 | 0.16 | 0.00 | 78 | 1016.9 |
| 20260503035503 | 38 | 0 | 0.0 | 0.0 | 0.00 | 0.16 | 0.16 | 77 | 1016.9 |
| 20260503035102 | 38 | 0 | 0.0 | 0.0 | 0.00 | 0.16 | 0.16 | 77 | 1016.9 |
| 20260503035024 | 38 | 0 | 0.0 | 0.0 | 0.00 | 0.16 | 0.16 | 77 | 1016.9 |
| 20260503034623 | 38 | 0 | 0.0 | 0.0 | 0.00 | 0.16 | 0.16 | 78 | 1017.0 |
| 20260503034424 | 38 | 0 | 0.0 | 0.0 | 0.00 | 0.16 | 0.16 | 78 | 1016.9 |
| 20260503034203 | 38 | 0 | 0.0 | 0.0 | 0.00 | 0.16 | 0.16 | 78 | 1017.0 |
| 20260503034102 | 38 | 0 | 0.0 | 0.0 | 0.00 | 0.16 | 0.16 | 78 | 1016.9 |
| 20260503034002 | 38 | 0 | 0.0 | 0.0 | 0.00 | 0.16 | 0.16 | 78 | 1016.9 |
| 20260503033902 | 39 | 0 | 0.0 | 0.0 | 0.00 | 0.16 | 0.16 | 78 | 1017.1 |
| 20260503033802 | 39 | 0 | 0.0 | 0.0 | 0.00 | 0.16 | 0.16 | 78 | 1016.8 |
| 20260503033602 | 39 | 0 | 0.0 | 0.0 | 0.00 | 0.16 | 0.16 | 78 | 1016.8 |
| 20260503033302 | 39 | 0 | 0.0 | 0.0 | 0.00 | 0.16 | 0.16 | 78 | 1016.9 |
| 20260503033103 | 39 | 0 | 0.0 | 0.0 | 0.00 | 0.16 | 0.16 | 78 | 1017.0 |
| 20260503033003 | 39 | 0 | 0.0 | 0.0 | 0.00 | 0.16 | 0.16 | 78 | 1017.0 |
| 20260503032803 | 39 | 0 | 0.0 | 0.0 | 0.00 | 0.16 | 0.16 | 78 | 1017.0 |
| 20260503032502 | 39 | 124 | 0.0 | 0.9 | 0.00 | 0.16 | 0.16 | 78 | 1017.0 |
| 20260503032102 | 39 | 123 | 0.0 | 0.9 | 0.00 | 0.16 | 0.16 | 77 | 1017.1 |
| 20260503031902 | 39 | 123 | 0.0 | 0.9 | 0.00 | 0.16 | 0.16 | 77 | 1017.0 |
| 20260503031824 | 39 | 123 | 0.0 | 0.9 | 0.00 | 0.16 | 0.16 | 78 | 1016.9 |
| 20260503031624 | 39 | 123 | 0.0 | 0.9 | 0.00 | 0.16 | 0.16 | 76 | 1017.0 |
| 20260503031102 | 39 | 0 | 0.0 | 0.0 | 0.00 | 0.16 | 0.16 | 78 | 1017.1 |
| 20260503030902 | 39 | 0 | 0.0 | 0.0 | 0.00 | 0.16 | 0.16 | 79 | 1017.0 |
| 20260503030803 | 39 | 0 | 0.0 | 0.0 | 0.00 | 0.16 | 0.16 | 79 | 1017.1 |
| 20260503030623 | 39 | 0 | 0.0 | 0.0 | 0.00 | 0.16 | 0.16 | 79 | 1017.2 |
| 20260503030203 | 39 | 0 | 0.0 | 0.0 | 0.00 | 0.16 | 0.16 | 79 | 1017.1 |
| 20260503030003 | 39 | 0 | 0.0 | 0.0 | 0.00 | 0.16 | 0.16 | 79 | 1017.1 |
| 20260503025902 | 39 | 0 | 0.0 | 0.0 | 0.00 | 0.16 | 0.16 | 78 | 1017.1 |
| 20260503025603 | 39 | 0 | 0.0 | 0.0 | 0.00 | 0.16 | 0.16 | 78 | 1017.2 |
| 20260503025503 | 39 | 0 | 0.0 | 0.0 | 0.00 | 0.16 | 0.16 | 78 | 1017.1 |
| 20260503025202 | 39 | 0 | 0.0 | 0.0 | 0.00 | 0.16 | 0.16 | 77 | 1017.0 |
| 20260503025102 | 39 | 0 | 0.0 | 0.0 | 0.00 | 0.16 | 0.16 | 77 | 1016.9 |
| 20260503023924 | 39 | 0 | 0.0 | 0.0 | 0.00 | 0.16 | 0.16 | 79 | 1017.3 |
| 20260503023703 | 39 | 116 | 0.0 | 0.9 | 0.00 | 0.16 | 0.16 | 79 | 1017.3 |
| 20260503023624 | 39 | 116 | 0.0 | 0.9 | 0.00 | 0.16 | 0.16 | 79 | 1017.3 |
| 20260503023402 | 39 | 116 | 0.0 | 0.9 | 0.00 | 0.16 | 0.16 | 78 | 1017.3 |
| 20260503023103 | 39 | 116 | 0.0 | 0.9 | 0.00 | 0.16 | 0.16 | 77 | 1017.2 |
| 20260503022903 | 39 | 116 | 0.0 | 0.9 | 0.00 | 0.16 | 0.16 | 77 | 1017.4 |
| 20260503022603 | 39 | 117 | 0.0 | 0.9 | 0.00 | 0.16 | 0.16 | 79 | 1017.3 |
| 20260503022502 | 39 | 117 | 0.0 | 0.9 | 0.00 | 0.16 | 0.16 | 79 | 1017.3 |
| 20260503022124 | 39 | 117 | 0.0 | 0.9 | 0.00 | 0.16 | 0.16 | 79 | 1017.2 |
| 20260503021902 | 39 | 120 | 0.0 | 0.9 | 0.00 | 0.16 | 0.16 | 79 | 1017.3 |
| 20260503021702 | 39 | 112 | 0.0 | 0.9 | 0.00 | 0.16 | 0.16 | 79 | 1017.4 |
| 20260503021602 | 39 | 115 | 0.0 | 0.9 | 0.00 | 0.16 | 0.16 | 78 | 1017.2 |
| 20260503021503 | 39 | 116 | 0.0 | 0.9 | 0.00 | 0.16 | 0.16 | 78 | 1017.4 |
| 20260503021424 | 39 | 117 | 0.0 | 0.9 | 0.00 | 0.16 | 0.16 | 78 | 1017.2 |
| 20260503021003 | 39 | 120 | 0.0 | 0.9 | 0.00 | 0.16 | 0.16 | 78 | 1017.3 |
| 20260503020303 | 39 | 124 | 0.0 | 0.9 | 0.00 | 0.16 | 0.16 | 77 | 1017.4 |
| 20260503020202 | 39 | 123 | 0.0 | 0.9 | 0.00 | 0.16 | 0.16 | 77 | 1017.3 |
| 20260503015603 | 39 | 123 | 0.0 | 0.9 | 0.00 | 0.16 | 0.16 | 77 | 1017.3 |
| 20260503015203 | 39 | 119 | 0.0 | 0.9 | 0.00 | 0.16 | 0.16 | 77 | 1017.4 |
| 20260503015103 | 39 | 119 | 0.0 | 0.9 | 0.00 | 0.16 | 0.16 | 78 | 1017.4 |
| 20260503014903 | 39 | 0 | 0.0 | 0.0 | 0.00 | 0.16 | 0.16 | 79 | 1017.4 |
| 20260503014424 | 39 | 0 | 0.0 | 0.0 | 0.00 | 0.16 | 0.16 | 79 | 1017.1 |
| 20260503014103 | 39 | 0 | 0.0 | 0.0 | 0.00 | 0.16 | 0.16 | 78 | 1017.3 |
| 20260503013902 | 39 | 0 | 0.0 | 0.0 | 0.00 | 0.16 | 0.16 | 78 | 1017.3 |
| 20260503013703 | 39 | 0 | 0.0 | 0.0 | 0.00 | 0.16 | 0.16 | 78 | 1017.2 |
| 20260503013402 | 40 | 0 | 0.0 | 0.0 | 0.00 | 0.16 | 0.16 | 78 | 1017.3 |
| 20260503013303 | 39 | 0 | 0.0 | 0.0 | 0.00 | 0.16 | 0.16 | 78 | 1017.2 |
| 20260503013103 | 40 | 0 | 0.0 | 0.0 | 0.00 | 0.16 | 0.16 | 78 | 1017.3 |
| 20260503013003 | 40 | 0 | 0.0 | 0.0 | 0.00 | 0.16 | 0.16 | 78 | 1017.2 |
| 20260503012803 | 40 | 0 | 0.0 | 0.0 | 0.00 | 0.16 | 0.16 | 78 | 1017.3 |
| 20260503012703 | 40 | 0 | 0.0 | 0.0 | 0.00 | 0.16 | 0.16 | 78 | 1017.3 |
| 20260503012603 | 40 | 0 | 0.0 | 0.0 | 0.00 | 0.16 | 0.16 | 77 | 1017.2 |
| 20260503011902 | 40 | 0 | 0.0 | 0.0 | 0.00 | 0.16 | 0.16 | 76 | 1017.0 |
| 20260503011802 | 40 | 0 | 0.0 | 0.0 | 0.00 | 0.16 | 0.16 | 76 | 1017.2 |
| 20260503011623 | 40 | 0 | 0.0 | 0.0 | 0.00 | 0.16 | 0.16 | 76 | 1017.2 |
| 20260503011403 | 40 | 0 | 0.0 | 0.0 | 0.00 | 0.16 | 0.16 | 76 | 1017.3 |
| 20260503011003 | 40 | 0 | 0.0 | 0.0 | 0.00 | 0.16 | 0.16 | 75 | 1017.2 |
| 20260503010703 | 40 | 0 | 0.0 | 0.0 | 0.00 | 0.16 | 0.16 | 74 | 1017.3 |
| 20260503010203 | 40 | 0 | 0.0 | 0.0 | 0.00 | 0.16 | 0.16 | 73 | 1017.3 |
| 20260503010003 | 40 | 0 | 0.0 | 0.0 | 0.00 | 0.16 | 0.16 | 72 | 1017.2 |
| 20260503005903 | 40 | 0 | 0.0 | 0.0 | 0.00 | 0.16 | 0.16 | 72 | 1017.3 |
| 20260503005402 | 40 | 0 | 0.0 | 0.0 | 0.00 | 0.16 | 0.16 | 71 | 1017.0 |
| 20260503005203 | 40 | 0 | 0.0 | 0.0 | 0.00 | 0.16 | 0.16 | 70 | 1017.2 |
| 20260503004903 | 40 | 0 | 0.0 | 0.0 | 0.00 | 0.16 | 0.16 | 70 | 1017.0 |
| 20260503004824 | 40 | 0 | 0.0 | 0.0 | 0.00 | 0.16 | 0.16 | 70 | 1017.2 |
| 20260503004703 | 40 | 0 | 0.0 | 0.0 | 0.00 | 0.16 | 0.16 | 70 | 1017.1 |
| 20260503004603 | 40 | 0 | 0.0 | 0.0 | 0.00 | 0.16 | 0.16 | 70 | 1017.1 |
| 20260503004402 | 41 | 0 | 0.0 | 0.0 | 0.00 | 0.16 | 0.16 | 70 | 1017.2 |
| 20260503004303 | 41 | 0 | 0.0 | 0.0 | 0.00 | 0.16 | 0.16 | 69 | 1017.2 |
| 20260503004102 | 41 | 0 | 0.0 | 0.0 | 0.00 | 0.16 | 0.16 | 68 | 1017.1 |
| 20260503003902 | 41 | 0 | 0.0 | 0.0 | 0.00 | 0.16 | 0.16 | 67 | 1017.0 |
| 20260503003803 | 41 | 0 | 0.0 | 0.0 | 0.00 | 0.16 | 0.16 | 68 | 1017.1 |
| 20260503003603 | 41 | 0 | 0.0 | 0.0 | 0.00 | 0.16 | 0.16 | 67 | 1017.0 |
| 20260503003403 | 41 | 0 | 0.0 | 0.0 | 0.00 | 0.16 | 0.16 | 65 | 1017.2 |
| 20260503003124 | 41 | 0 | 0.0 | 0.0 | 0.00 | 0.16 | 0.16 | 64 | 1017.0 |
| 20260503003003 | 41 | 0 | 0.0 | 0.0 | 0.00 | 0.16 | 0.16 | 65 | 1017.0 |
| 20260503002903 | 41 | 0 | 0.0 | 0.0 | 0.00 | 0.16 | 0.16 | 64 | 1017.0 |
| 20260503002603 | 41 | 0 | 0.0 | 0.0 | 0.00 | 0.16 | 0.16 | 63 | 1016.9 |
| 20260503002403 | 41 | 0 | 0.0 | 0.0 | 0.00 | 0.16 | 0.16 | 64 | 1017.0 |
| 20260503002202 | 41 | 0 | 0.0 | 0.0 | 0.00 | 0.16 | 0.16 | 63 | 1017.2 |
| 20260503001824 | 41 | 0 | 0.0 | 0.0 | 0.00 | 0.16 | 0.16 | 64 | 1016.9 |
| 20260503001603 | 41 | 0 | 0.0 | 0.0 | 0.00 | 0.16 | 0.16 | 64 | 1016.9 |
| 20260503001403 | 42 | 0 | 0.0 | 0.0 | 0.00 | 0.16 | 0.16 | 64 | 1017.0 |
| 20260503001203 | 41 | 0 | 0.0 | 0.0 | 0.00 | 0.16 | 0.16 | 63 | 1017.0 |
| 20260503001103 | 41 | 0 | 0.0 | 0.0 | 0.00 | 0.16 | 0.16 | 63 | 1017.1 |
| 20260503000924 | 42 | 0 | 0.0 | 0.0 | 0.00 | 0.16 | 0.16 | 65 | 1017.0 |
| 20260503000703 | 42 | 0 | 0.0 | 0.0 | 0.00 | 0.16 | 0.16 | 65 | 1017.0 |
| 20260503000503 | 42 | 0 | 0.0 | 0.0 | 0.00 | 0.16 | 0.16 | 65 | 1017.0 |
| 20260503000403 | 42 | 0 | 0.0 | 0.0 | 0.00 | 0.16 | 0.16 | 64 | 1017.1 |
| 20260503000204 | 42 | 0 | 0.0 | 0.0 | 0.00 | 0.16 | 0.16 | 63 | 1017.1 |
| 20260502235924 | 42 | 94 | 0.0 | 0.9 | 0.00 | 0.16 | 0.16 | 63 | 1017.0 |
| 20260502235603 | 42 | 103 | 0.0 | 0.9 | 0.00 | 0.16 | 0.16 | 62 | 1016.8 |
| 20260502235402 | 42 | 103 | 0.0 | 0.9 | 0.00 | 0.16 | 0.16 | 60 | 1016.9 |
| 20260502235203 | 42 | 94 | 0.0 | 0.9 | 0.00 | 0.16 | 0.16 | 61 | 1016.9 |
| 20260502235103 | 42 | 89 | 0.0 | 0.9 | 0.00 | 0.16 | 0.16 | 61 | 1017.0 |
| 20260502234803 | 42 | 88 | 0.0 | 1.7 | 0.00 | 0.16 | 0.16 | 59 | 1017.0 |
| 20260502234602 | 42 | 88 | 0.9 | 2.6 | 0.00 | 0.16 | 0.16 | 62 | 1016.9 |
| 20260502234403 | 42 | 90 | 0.9 | 2.6 | 0.00 | 0.16 | 0.16 | 60 | 1016.7 |
| 20260502234202 | 42 | 93 | 0.9 | 2.6 | 0.00 | 0.16 | 0.16 | 59 | 1016.9 |
| 20260502234102 | 42 | 88 | 0.9 | 2.6 | 0.00 | 0.16 | 0.16 | 59 | 1016.8 |
| 20260502233903 | 42 | 94 | 0.9 | 2.6 | 0.00 | 0.16 | 0.16 | 61 | 1016.8 |